Theta_e
313 312 314 314 315 302 307 307 302 304 311 307 304 305 306 305 302 299 306 304 306 310 311 313 315 314 315 316 318 319 329 330 333 332 332 333 335 338 336 339 340 343 344 346 347 348 352 355 355 355 357 359 359 360 360 361 361 361 362 363 362 363 363
313 316 315 314 315 314 309 302 305 311 313 311 305 298 303 300 296 299 303 301 303 303 300 312 312 313 314 315 316 317 321 333 329 328 327 331 331 334 339 341 343 344 344 344 345 350 353 355 356 356 359 361 362 362 361 360 362 362 362 362 362 363 363
312 316 314 312 314 315 310 307 314 304 300 299 305 303 296 296 296 299 302 304 304 305 305 309 309 310 312 316 317 317 317 323 328 332 330 328 329 333 336 339 342 344 345 346 347 347 349 353 359 358 360 359 361 362 363 363 362 362 362 362 363 363 364
312 312 311 303 307 313 314 315 310 312 308 304 301 302 304 304 298 299 300 304 301 309 309 311 311 313 315 314 316 315 318 328 331 332 330 330 332 335 334 336 340 341 341 343 346 349 351 354 358 357 358 358 358 361 364 364 364 365 364 364 364 363 363
311 304 308 305 307 305 306 306 307 308 307 311 308 307 303 301 300 301 300 298 304 310 315 313 314 315 316 316 317 321 318 334 329 332 333 333 333 336 336 336 338 340 343 346 347 351 354 357 359 358 357 357 357 360 363 364 364 364 363 363 363 364 364
305 306 311 311 310 310 307 306 305 307 304 302 299 298 307 304 301 297 300 299 310 312 316 316 316 318 316 318 319 319 320 320 334 335 332 334 331 336 339 339 338 338 341 350 351 354 357 357 358 357 357 358 358 360 362 364 364 365 364 363 364 364 365
307 310 312 314 314 313 311 309 306 309 308 306 302 295 300 304 304 306 305 302 308 317 318 319 318 318 318 319 318 318 319 320 324 329 332 334 333 334 334 334 337 343 347 348 352 357 357 357 358 358 357 357 357 359 362 363 363 365 365 364 364 366 365
312 312 313 313 314 313 309 309 310 309 306 306 305 304 306 303 304 301 301 301 306 314 327 324 318 326 319 321 319 323 319 319 323 327 328 334 333 334 334 337 335 341 343 346 347 354 358 359 360 360 358 359 358 359 360 362 363 364 365 365 364 365 365
305 306 308 309 312 311 308 307 308 309 310 310 309 309 310 303 304 303 300 296 304 314 328 325 321 318 318 318 319 321 321 323 322 326 329 336 335 336 336 340 341 342 340 343 343 348 358 360 361 361 360 359 358 358 359 361 362 364 364 365 365 365 364
295 295 295 298 301 304 308 310 308 309 308 308 306 302 306 299 309 309 302 302 310 315 323 318 318 318 326 320 320 320 323 324 322 326 338 340 337 337 339 341 342 342 343 344 345 350 359 360 360 363 362 360 359 358 359 361 362 362 363 364 364 365 365
302 307 309 309 310 307 303 306 307 307 308 309 309 308 304 300 307 306 310 310 310 311 312 315 314 318 316 316 321 320 323 331 335 347 349 343 340 338 338 339 341 345 347 349 353 360 360 359 359 362 362 360 359 361 361 361 361 361 364 363 364 365 365
306 308 311 311 311 307 307 306 306 308 307 308 307 304 302 316 306 301 313 323 310 310 313 314 317 316 321 318 324 320 327 334 331 335 345 345 339 343 342 340 341 342 349 352 358 362 361 358 359 360 361 360 361 363 361 361 361 361 362 363 364 365 365
308 309 309 311 311 310 309 307 307 306 307 307 305 307 308 311 305 304 316 319 314 313 314 315 318 320 320 316 318 319 325 330 334 337 330 330 336 341 343 355 348 347 354 364 361 362 361 359 358 359 359 361 363 365 362 362 360 360 362 363 363 364 365
306 308 309 310 309 310 309 308 308 308 308 307 307 307 309 309 314 313 314 320 313 315 315 316 317 320 318 320 324 322 324 327 335 331 333 325 331 335 339 347 353 357 355 367 364 364 363 360 360 357 359 362 362 363 362 361 361 361 363 363 362 363 364
303 306 309 309 310 309 307 309 309 308 308 308 308 308 308 310 309 310 310 316 314 317 322 320 321 337 320 322 318 320 328 325 325 327 324 324 326 338 343 352 351 357 360 365 366 365 365 363 362 359 359 362 363 359 359 358 361 362 364 364 362 362 364
300 305 306 307 309 308 308 308 309 309 308 306 307 306 309 308 308 311 310 312 310 317 321 319 321 320 321 321 324 325 327 322 324 323 323 325 332 331 334 341 348 357 358 361 363 364 363 363 365 362 362 362 361 357 358 358 358 360 361 365 362 363 366
299 304 306 305 307 307 303 304 307 308 310 310 310 310 311 310 311 308 306 309 317 321 323 319 317 317 318 320 319 322 324 333 326 324 323 324 330 335 344 348 353 344 342 351 361 358 358 359 359 361 365 362 360 360 360 360 360 358 358 362 364 365 367
298 303 304 306 303 296 298 310 313 312 309 309 308 308 310 311 312 310 313 315 322 321 318 317 319 318 321 325 331 326 333 330 335 323 327 324 327 331 340 347 346 349 354 355 354 354 359 359 354 356 360 360 362 362 361 363 361 361 360 361 367 365 368
297 301 302 298 294 296 309 313 314 314 313 313 311 312 312 312 313 313 313 315 318 321 321 320 323 331 323 323 324 322 323 330 327 329 325 331 333 339 335 341 335 348 360 356 363 366 358 355 359 357 359 361 362 362 361 361 362 363 362 362 369 367 367
300 299 298 291 294 307 310 312 314 315 314 313 312 309 313 314 313 314 313 316 317 321 319 320 323 328 322 323 328 328 325 325 324 322 323 324 324 326 331 367 361 362 354 358 349 358 347 351 356 356 357 356 355 357 359 359 360 362 364 363 368 369 367
294 297 297 297 305 304 306 308 311 312 310 311 309 305 310 314 316 316 316 317 318 318 319 320 321 322 321 322 325 324 324 326 324 323 324 323 325 326 349 359 363 366 364 357 353 364 361 356 351 355 356 356 356 356 356 354 359 359 361 362 364 370 367
299 295 294 296 297 295 302 309 313 315 315 315 315 311 308 315 316 317 316 316 317 318 318 319 320 319 318 315 318 323 323 323 322 323 323 324 326 329 356 362 362 364 360 360 361 351 359 360 358 363 356 357 358 359 357 355 354 355 357 360 364 370 368
296 295 292 293 294 299 308 308 312 315 317 315 317 311 305 315 316 316 316 315 316 316 316 318 319 315 311 312 319 323 322 322 322 323 323 324 330 350 352 352 355 366 368 366 364 365 362 357 361 364 364 360 356 358 359 354 353 354 356 360 363 368 369
293 294 293 292 300 300 307 309 311 314 318 317 314 301 302 321 325 326 322 315 318 333 334 328 319 316 311 314 326 321 322 347 349 351 348 349 350 353 355 358 361 363 365 358 354 350 352 366 368 367 357 358 358 358 357 358 355 355 358 361 366 370 372
293 293 293 297 301 308 310 312 314 315 316 314 303 297 312 321 326 327 328 326 327 330 330 330 321 325 327 333 335 333 338 348 347 348 348 349 353 354 354 354 361 356 361 361 358 362 372 367 366 364 358 360 366 367 362 360 358 358 364 367 369 370 373
291 294 292 294 300 307 311 314 315 315 310 301 302 318 325 322 323 328 329 327 327 327 328 329 328 331 334 336 336 338 345 348 350 352 351 352 353 354 359 354 352 354 355 363 358 353 364 369 366 365 370 369 367 374 365 361 364 368 372 370 370 370 372
294 295 292 291 288 304 312 313 312 314 305 311 318 319 322 321 323 325 327 327 326 327 326 326 329 330 331 333 332 335 342 346 347 349 348 347 345 349 358 357 351 353 359 358 359 361 362 360 364 368 369 368 371 375 368 368 369 373 376 371 371 369 371
290 291 290 291 300 307 310 308 305 310 311 314 318 318 317 321 322 323 325 327 328 326 325 326 328 328 332 334 337 335 338 344 347 348 350 350 350 354 354 353 355 355 357 359 360 362 363 365 364 365 370 369 368 369 370 378 372 374 378 374 373 370 369
295 294 298 305 311 311 310 312 309 312 315 316 318 320 319 320 322 326 326 326 328 327 326 327 329 330 330 332 336 337 334 340 345 347 348 348 349 353 353 351 355 357 356 356 357 359 364 363 363 366 367 367 365 364 369 375 375 374 377 374 372 370 369
304 304 303 307 310 312 311 312 312 312 313 316 315 317 318 321 323 325 324 325 328 328 329 327 329 331 332 332 333 337 338 341 345 349 349 352 352 351 352 353 353 354 356 356 356 356 359 364 367 365 366 368 364 369 372 370 376 375 375 374 372 371 370
297 293 306 306 308 311 311 309 311 313 314 314 314 316 320 322 323 325 325 328 330 330 330 329 328 329 331 328 331 337 342 342 344 345 346 348 351 351 350 351 353 353 354 353 352 353 354 359 362 365 367 370 370 369 371 370 371 375 373 373 371 372 370
297 298 305 308 309 308 309 309 309 310 312 314 316 320 322 322 322 323 325 328 329 329 329 331 331 331 332 332 333 336 338 342 344 346 345 346 348 352 351 350 354 352 352 352 351 351 352 356 359 360 362 363 365 367 365 370 369 371 372 368 366 368 365
300 304 304 306 307 307 308 310 311 311 312 314 315 317 318 319 320 321 322 324 326 328 329 332 332 330 333 335 336 336 337 342 343 343 344 345 347 349 350 351 353 352 351 351 351 351 351 355 357 359 359 360 363 366 367 369 372 368 368 366 367 368 368
295 297 300 305 299 299 305 309 311 312 313 313 312 313 315 317 318 320 319 320 325 327 330 331 332 331 332 335 338 338 340 341 343 343 344 345 346 347 350 351 351 350 350 350 350 350 351 353 355 357 358 361 364 364 367 369 372 369 367 367 367 367 367
295 302 305 309 307 307 307 309 311 312 313 312 311 312 314 316 318 318 318 318 321 326 329 331 332 333 334 334 338 338 340 342 344 345 345 345 345 347 348 348 348 348 348 348 348 348 349 350 350 353 355 358 361 361 363 366 369 370 370 368 364 357 357
303 305 306 308 305 304 307 309 310 311 313 313 312 313 315 315 316 317 319 320 320 322 327 330 332 333 335 336 336 337 340 343 343 343 344 346 346 346 347 348 347 346 346 346 346 345 348 349 350 352 350 352 357 356 359 360 361 360 360 360 355 355 356
301 306 307 307 307 307 308 309 310 311 312 313 311 312 313 314 317 320 319 319 321 322 324 328 330 333 335 337 338 339 340 341 342 342 345 346 346 345 346 346 345 346 346 346 347 349 349 351 351 351 351 352 354 353 357 355 358 357 355 353 353 352 352
Wind_Speed
18 22 20 19 17 13 14 15 18 17 12 13 9 10 13 13 11 12 8 11 14 11 13 13 15 17 20 21 18 16 17 24 23 20 21 21 19 19 19 20 19 18 16 16 20 21 17 20 22 22 21 20 21 20 21 22 22 21 21 20 19 18 17
22 18 21 21 21 13 11 17 16 13 15 13 10 9 6 10 12 9 11 14 12 13 10 11 14 15 14 19 21 20 16 23 25 22 21 19 21 22 22 20 20 18 17 17 15 12 18 24 26 23 21 19 18 19 21 23 22 23 21 20 19 19 18
21 17 19 20 22 22 15 14 13 15 13 14 11 8 12 10 11 8 12 16 13 13 10 11 17 18 16 14 17 20 18 21 24 22 20 21 19 20 21 22 18 16 14 15 16 20 25 26 23 21 20 20 19 19 21 23 25 25 24 21 20 17 18
21 18 17 19 19 21 23 12 15 15 11 12 12 12 7 7 9 9 8 7 8 10 11 14 13 15 13 15 13 20 15 23 20 19 22 21 19 19 20 18 19 20 22 23 24 24 26 26 25 23 24 22 24 23 22 22 21 20 20 20 18 18 18
21 18 17 20 19 19 19 16 13 14 11 8 11 10 13 8 7 7 7 10 8 10 7 13 12 13 14 14 12 10 15 20 19 24 21 18 17 17 22 20 20 23 21 23 26 26 25 25 22 22 22 25 23 22 22 23 22 23 23 22 20 18 17
19 20 19 20 21 21 18 16 15 15 16 14 15 13 12 13 8 5 6 7 3 6 12 10 12 12 15 15 13 11 16 20 22 21 21 18 18 16 19 18 20 20 20 21 21 20 19 20 22 25 23 22 23 23 22 23 23 22 23 22 19 19 18
18 20 21 20 20 21 20 18 16 15 14 13 11 9 11 11 12 10 8 8 1 5 8 4 11 9 12 14 14 13 15 17 17 19 23 21 19 17 19 19 19 18 15 14 13 16 19 21 21 24 22 23 23 24 23 22 23 24 23 23 20 18 18
15 21 18 20 21 21 21 21 19 16 16 17 13 9 8 9 11 11 8 9 4 8 5 2 4 4 10 10 12 8 13 12 13 18 20 21 20 18 17 17 17 14 14 12 13 14 16 16 16 21 22 21 21 21 22 22 24 25 23 21 19 18 18
9 17 16 17 20 18 15 17 19 20 17 18 17 12 8 9 12 13 9 9 3 5 2 5 4 2 7 11 11 11 12 10 11 13 13 17 21 17 14 15 16 15 16 15 14 14 16 16 16 18 18 19 21 21 21 22 22 23 22 20 20 19 20
13 17 18 18 18 19 16 17 22 25 24 21 15 15 8 7 8 12 9 7 4 7 5 7 8 7 3 9 10 11 8 11 10 7 8 16 21 18 15 16 15 15 15 16 15 15 16 17 16 15 16 18 19 19 21 20 20 20 21 20 20 20 20
10 8 7 14 12 14 18 20 23 25 24 22 17 9 11 10 6 9 7 5 10 9 10 8 10 4 4 3 9 11 5 9 10 9 10 10 13 17 18 16 14 12 13 18 18 15 17 19 17 15 17 19 18 16 18 20 18 18 18 17 17 19 20
16 13 13 2 16 21 21 22 23 24 26 25 21 15 13 6 7 6 7 9 11 11 9 7 7 8 6 7 6 13 7 11 11 8 9 13 12 12 14 15 16 15 11 13 14 15 16 17 16 15 17 18 16 14 16 17 17 18 17 16 17 17 18
15 14 17 14 8 11 13 24 22 24 24 26 25 18 15 13 9 7 7 4 4 10 8 8 8 8 8 9 8 12 11 14 10 7 9 13 13 10 11 9 12 11 9 9 12 15 15 17 16 16 15 15 13 12 14 14 17 17 14 15 15 17 16
14 15 16 14 14 12 9 17 23 21 24 25 26 20 17 15 8 8 8 6 9 3 10 9 9 9 10 7 4 8 8 11 7 5 4 13 14 12 11 9 8 8 9 9 11 11 13 15 14 15 13 13 14 14 14 15 15 14 13 15 15 15 17
12 12 12 17 13 3 11 13 15 22 19 22 24 22 20 17 14 15 11 12 10 5 7 8 9 3 10 7 10 12 7 9 7 8 7 8 12 14 11 9 10 7 7 7 9 10 11 12 14 14 12 12 13 18 17 18 15 14 13 14 15 16 15
11 9 10 13 13 11 12 14 14 13 19 22 21 20 19 16 14 13 14 8 10 7 8 12 8 4 1 5 9 10 9 12 12 12 13 8 12 15 13 11 9 8 8 8 8 10 11 11 11 11 11 11 12 16 16 16 17 17 13 14 17 15 14
11 8 7 13 12 6 10 12 13 14 13 13 17 18 19 18 16 14 13 7 6 6 6 8 13 12 8 4 6 3 3 8 3 6 7 11 15 13 12 12 12 12 12 12 10 11 12 12 11 11 10 11 12 11 12 13 12 16 16 14 15 15 15
11 10 8 10 9 10 10 7 14 14 14 13 17 18 20 20 17 11 10 7 11 9 11 11 9 9 7 4 3 1 2 2 3 4 3 6 3 14 16 14 12 10 10 12 12 12 9 11 14 13 12 12 10 11 11 11 13 12 13 12 13 15 15
8 7 8 9 13 11 6 9 10 10 10 9 13 14 22 19 19 16 14 12 10 9 8 10 7 4 7 8 5 6 6 5 2 3 3 4 5 5 3 6 11 10 7 10 7 9 11 12 10 10 10 10 9 10 10 11 11 10 11 12 10 14 15
8 8 7 13 11 6 8 11 7 6 10 12 11 13 10 18 20 17 15 16 11 7 10 12 10 6 3 4 2 2 3 7 6 8 8 9 7 5 5 11 11 8 9 7 8 4 2 3 10 12 11 12 13 13 12 12 11 12 9 11 9 12 14
7 6 7 11 6 10 16 15 13 11 10 10 8 6 6 7 4 10 8 8 7 7 3 4 5 3 2 1 2 3 4 3 4 7 7 8 11 13 8 10 10 7 6 5 5 4 3 3 4 8 11 12 12 12 14 14 11 12 12 12 12 12 14
7 7 8 7 10 13 12 2 7 8 9 11 9 8 7 7 8 4 0 4 5 7 9 10 9 7 4 4 4 6 9 10 12 12 13 10 8 5 11 10 9 7 6 5 5 3 5 4 5 3 7 12 10 10 11 13 14 14 14 13 11 10 13
8 8 8 8 8 9 7 13 10 6 3 2 12 2 8 3 8 10 9 6 6 6 8 7 7 8 7 7 5 5 8 10 10 12 12 13 4 11 11 8 9 9 8 5 3 3 3 6 6 5 5 5 13 10 11 14 14 13 14 12 12 12 13
9 8 8 9 8 3 4 2 10 13 10 2 3 6 6 9 14 19 6 14 4 10 11 4 5 4 4 3 2 1 4 14 17 19 12 12 13 11 11 10 9 7 4 1 2 5 7 7 6 6 8 6 7 11 11 12 12 13 12 11 10 9 10
10 12 9 10 6 3 3 11 9 7 4 9 10 8 5 7 14 13 16 17 12 10 9 10 2 4 7 9 10 11 13 14 14 12 11 11 11 12 10 9 7 4 1 2 2 2 4 2 7 7 7 6 5 7 10 10 11 10 8 8 9 9 10
11 9 9 9 7 3 10 4 7 8 2 9 8 4 9 7 7 11 12 14 12 10 11 9 8 7 10 12 13 11 11 13 14 11 11 9 10 10 8 6 4 1 1 3 3 5 4 1 3 5 4 5 5 5 9 11 10 6 7 9 9 10 10
10 11 10 8 8 5 7 9 4 6 6 2 6 7 4 8 8 9 12 12 13 13 11 12 11 12 12 11 11 10 8 9 10 10 9 10 10 9 6 6 5 1 2 1 4 4 2 4 4 4 4 5 4 4 7 7 7 5 6 9 10 10 10
12 14 13 7 9 6 5 2 4 9 6 5 3 8 3 6 7 11 7 12 11 13 12 12 12 12 12 12 11 8 5 4 6 6 8 6 5 6 9 8 7 6 2 3 3 2 4 3 3 3 4 4 3 3 4 4 6 4 6 8 9 9 9
11 8 10 8 7 8 7 10 15 9 11 10 10 10 6 8 9 10 8 10 11 12 12 11 12 11 13 12 13 12 7 4 6 8 9 8 6 6 7 7 5 5 5 1 1 2 2 1 2 2 3 3 4 3 3 3 4 4 5 7 8 8 9
8 8 8 8 7 4 5 8 10 9 11 8 11 12 10 8 9 7 7 7 8 9 9 10 10 11 12 12 12 13 10 7 5 6 5 5 7 5 4 7 7 4 2 3 3 3 3 5 4 1 2 3 4 5 4 3 3 3 5 6 7 7 7
6 4 8 10 6 4 8 13 10 8 7 9 8 10 9 9 10 11 9 10 9 9 10 10 10 10 11 12 12 11 9 5 7 6 5 6 7 10 7 5 5 3 2 1 3 3 4 5 6 6 5 6 7 5 4 4 3 5 5 6 6 5 6
9 8 4 4 6 13 12 9 10 7 8 10 11 9 10 10 10 11 14 14 11 11 9 9 9 10 9 10 11 10 9 6 2 4 4 6 5 3 5 5 6 2 2 2 3 4 3 3 4 5 5 6 5 4 3 4 3 3 5 5 6 6 7
10 12 14 12 12 13 11 11 10 9 8 12 11 12 12 11 12 12 11 11 12 12 11 9 8 9 10 10 10 11 9 8 4 3 3 4 5 5 5 3 3 3 4 4 4 5 5 5 5 5 5 4 3 3 3 3 4 4 4 5 5 6 6
9 10 9 7 9 8 8 10 8 9 13 12 14 13 12 12 13 12 12 11 10 11 11 12 10 9 9 11 10 9 9 7 7 6 4 4 5 4 2 1 2 2 3 5 6 5 5 4 3 4 5 4 4 6 4 2 5 5 6 6 6 6 6
9 8 10 6 9 9 7 9 12 13 13 15 16 16 14 12 12 14 14 14 11 9 9 9 10 9 8 12 11 8 6 6 4 4 4 4 3 1 0 1 4 4 4 5 5 5 4 5 5 5 5 4 6 6 5 5 4 6 5 5 6 7 7
14 13 12 5 7 9 9 11 12 11 10 11 15 17 17 17 13 13 14 13 14 12 9 8 8 9 9 11 11 8 6 4 3 3 3 3 2 1 1 4 5 6 5 5 5 6 3 3 4 4 6 6 6 6 6 6 6 7 7 6 8 6 6
13 11 12 11 11 11 10 11 12 11 10 11 12 15 17 20 21 17 16 15 15 16 15 13 11 10 8 9 10 6 5 3 3 2 1 1 1 2 4 4 4 4 5 5 5 4 3 3 4 5 7 8 7 8 7 7 6 7 8 8 8 8 7
Wind_Direction
206 201 196 207 210 206 181 200 208 213 204 216 232 236 223 228 227 232 213 217 222 249 253 233 227 222 211 209 225 232 157 167 161 170 172 173 176 174 181 182 185 183 182 185 192 196 190 193 196 197 194 189 185 181 181 182 183 183 184 185 183 183 184
217 196 194 204 216 224 177 206 205 206 220 226 224 242 218 224 231 219 217 227 216 205 226 220 221 224 226 198 204 224 207 166 163 169 172 176 178 174 175 182 181 178 186 195 189 185 192 195 198 196 192 190 184 182 182 181 182 184 185 184 184 182 183
198 186 188 204 219 223 223 204 182 202 187 207 208 244 234 221 221 239 215 222 234 201 211 203 212 216 212 225 192 211 224 172 163 160 170 173 182 172 178 186 181 174 175 180 192 196 202 201 198 196 189 188 186 185 186 184 184 185 183 184 185 183 184
183 185 186 205 203 215 235 223 196 205 219 206 204 210 251 244 232 219 230 235 240 219 210 198 205 204 199 220 211 196 211 144 160 157 170 179 182 174 180 179 174 180 184 190 194 197 198 199 196 196 192 192 191 188 185 187 186 184 183 184 182 183 185
185 197 191 205 194 198 205 222 211 186 221 196 221 202 221 225 243 221 223 220 226 248 223 186 192 193 186 204 228 196 198 162 167 165 174 177 189 171 175 174 176 182 185 189 192 194 196 194 192 193 193 193 193 189 188 187 184 185 186 186 183 185 185
200 203 194 199 201 201 203 207 213 198 192 199 198 215 199 223 232 245 238 240 252 206 205 181 183 195 186 184 218 213 205 186 173 169 179 179 186 172 171 169 175 182 185 187 189 194 196 194 191 194 195 193 191 192 190 188 187 187 187 186 186 184 186
212 196 187 197 207 206 207 203 214 210 195 207 207 213 197 207 225 244 245 271 116 351 29 144 180 173 175 173 201 213 197 202 181 170 179 178 178 179 179 175 172 172 173 178 178 186 195 197 192 193 194 194 194 193 190 189 188 189 189 189 187 184 186
227 183 192 188 207 211 207 206 211 213 209 198 214 212 208 209 204 215 223 236 83 35 6 42 133 113 159 163 188 204 180 209 197 180 183 170 173 176 183 171 167 162 165 155 173 193 194 198 190 190 196 195 194 194 192 190 191 189 189 189 188 186 189
269 187 185 197 193 217 218 205 202 213 213 202 206 218 205 225 203 210 214 219 167 137 150 57 161 151 167 160 175 197 178 198 223 179 179 154 166 168 176 156 157 163 164 168 189 193 189 193 191 189 194 195 195 195 194 193 193 190 189 187 187 185 189
221 197 187 194 189 201 216 212 199 206 214 210 196 207 202 220 193 204 211 216 130 127 127 159 175 173 163 151 171 193 201 166 215 202 157 147 156 165 164 156 170 174 172 176 186 193 188 187 191 188 190 196 198 197 198 196 193 190 190 188 187 184 187
242 228 205 198 206 194 210 211 209 196 210 219 213 202 211 205 196 208 199 223 126 162 145 149 142 131 185 140 169 173 207 121 75 49 83 137 157 163 160 164 169 178 173 177 184 182 180 184 189 187 188 195 199 196 197 197 195 192 188 189 185 185 187
280 315 303 190 217 199 203 215 206 202 197 213 215 204 205 176 186 218 181 146 165 142 151 145 173 166 195 219 192 162 133 107 102 83 92 95 125 147 158 172 173 176 176 175 178 176 177 183 188 190 191 195 197 194 194 197 197 195 192 189 186 184 187
266 264 277 273 315 311 220 209 213 202 197 203 217 206 206 181 202 195 178 182 175 145 162 151 190 171 184 211 174 154 140 108 129 139 117 120 120 115 129 129 153 164 154 168 175 173 177 181 186 191 192 194 195 192 194 194 200 199 189 186 187 185 185
283 278 272 262 265 233 259 213 213 210 197 201 210 215 211 200 189 224 175 182 227 165 132 192 165 179 175 169 118 136 179 108 95 122 152 152 132 132 137 139 140 145 160 158 166 167 173 180 184 190 192 189 190 192 193 193 199 200 186 184 186 186 187
287 275 272 289 264 335 285 290 222 211 205 200 200 212 216 207 203 200 218 168 203 153 150 159 143 127 134 166 147 133 103 103 138 143 175 175 147 130 145 143 151 149 149 154 162 173 181 184 185 190 193 190 186 196 197 199 194 199 189 179 185 188 188
270 244 266 270 245 231 253 269 275 220 211 199 195 204 209 207 199 187 214 176 195 171 147 126 124 120 337 79 74 132 159 162 174 172 185 190 139 141 145 149 147 154 159 169 173 182 189 193 192 192 191 189 189 198 195 199 196 198 200 182 185 186 181
262 251 268 297 272 226 261 257 263 256 241 223 193 201 204 209 204 198 200 187 162 213 214 162 154 182 168 146 121 106 49 360 47 168 164 157 150 142 148 146 143 165 176 178 182 190 194 198 201 200 190 189 194 197 196 194 196 198 204 190 180 181 180
296 276 263 279 238 222 240 249 250 222 209 218 212 198 202 199 205 206 193 193 152 179 183 219 180 170 125 150 134 14 348 120 279 280 351 341 74 140 155 146 156 169 186 174 180 184 189 193 201 204 200 198 195 193 198 190 195 200 198 201 179 182 180
294 280 235 242 226 233 243 232 241 265 275 287 276 216 192 197 196 207 187 198 166 151 160 193 222 198 188 200 189 199 221 291 321 332 327 314 293 325 323 157 183 163 123 100 138 166 190 191 189 194 194 197 189 191 200 198 194 197 197 205 180 180 182
289 293 241 230 226 215 244 231 229 252 256 255 266 280 231 189 188 193 201 189 177 160 180 183 182 187 178 142 161 300 244 170 207 207 208 216 246 282 279 81 92 105 117 128 128 133 116 205 184 189 190 195 199 199 198 203 195 195 196 201 191 178 181
269 264 279 259 245 218 221 229 205 199 225 232 250 267 260 300 266 188 178 149 156 139 101 50 78 79 118 160 103 180 272 297 269 259 248 230 206 208 153 129 107 92 103 106 118 139 155 236 249 190 184 190 197 197 197 204 198 194 196 200 199 182 183
267 265 270 275 235 216 193 297 226 194 228 234 231 234 268 284 293 319 178 166 177 189 184 179 170 162 213 218 206 193 221 229 238 234 239 238 245 216 124 111 114 116 121 128 129 161 171 212 244 269 190 177 188 191 195 199 202 199 200 202 198 182 184
266 247 263 262 244 210 169 195 234 182 251 122 39 304 217 178 259 242 240 232 200 232 237 227 188 193 199 203 219 191 217 239 241 232 209 224 163 77 82 89 91 82 74 61 60 142 191 210 216 248 272 202 181 191 190 200 203 203 202 198 194 189 184
259 265 249 250 224 128 351 189 193 197 171 21 196 196 174 32 32 15 287 220 28 34 19 314 212 213 209 166 190 195 230 75 52 39 29 81 93 95 89 80 75 73 53 71 232 242 221 219 217 215 229 243 207 185 193 197 203 204 201 193 188 180 175
254 263 269 266 256 106 57 42 25 21 189 167 197 199 64 357 39 33 35 48 39 35 32 22 8 48 4 5 348 352 20 42 54 53 55 49 60 65 64 53 38 47 125 220 263 303 25 192 201 220 218 224 230 180 182 193 209 205 187 174 174 176 170
230 233 245 250 263 221 89 57 342 19 250 188 172 26 288 346 50 47 39 45 34 23 32 21 27 349 358 358 2 4 28 35 42 42 41 38 50 58 62 62 65 25 3 78 264 246 201 292 237 223 229 225 229 184 181 194 200 185 165 169 167 172 173
227 225 229 229 237 192 98 81 52 331 325 349 337 324 13 17 34 45 44 32 27 20 16 14 6 3 357 357 349 351 355 3 25 37 22 24 22 23 65 77 65 68 81 32 21 21 321 248 234 267 251 236 224 186 191 188 173 175 159 164 165 169 172
212 210 219 221 235 298 122 92 84 45 84 213 287 262 350 356 43 27 20 32 16 16 14 2 2 357 358 355 351 330 324 322 327 4 28 18 10 34 48 50 38 40 62 28 18 339 339 316 263 251 263 237 206 176 159 138 155 159 151 152 157 163 169
212 222 224 214 325 298 328 34 38 19 7 8 5 34 20 5 16 22 12 12 7 3 0 358 0 355 0 351 340 325 313 354 23 24 13 8 11 41 35 29 11 13 41 44 21 355 354 336 207 244 245 219 159 164 126 116 137 150 143 149 152 161 167
310 293 286 314 263 299 273 33 17 350 349 6 16 22 12 13 350 3 358 352 6 357 358 356 1 2 348 342 335 333 329 350 22 50 4 5 30 24 37 39 14 358 16 69 76 54 35 18 8 152 146 117 121 87 63 105 143 131 124 128 140 149 156
324 253 199 230 256 277 328 356 346 347 310 345 3 14 10 356 345 339 347 0 3 15 8 3 355 341 347 336 329 324 319 342 355 359 6 354 20 19 33 12 323 343 295 94 89 83 53 25 25 33 62 73 80 96 97 66 86 98 116 120 129 143 162
240 255 235 246 321 332 327 322 317 315 328 326 353 10 360 346 340 347 355 351 0 3 353 13 345 339 332 330 326 318 320 315 298 351 14 340 328 23 20 353 322 347 1 43 64 66 53 30 43 55 58 79 88 93 113 149 118 117 120 134 150 163 173
247 246 265 283 303 296 290 287 305 304 357 8 352 351 344 340 342 349 346 352 344 348 352 343 352 334 327 323 323 320 321 323 352 13 325 326 318 318 315 320 322 49 52 67 74 74 65 29 38 54 55 70 91 126 165 172 129 150 128 142 152 165 172
252 239 233 231 250 252 251 242 256 331 1 349 338 332 333 334 337 338 338 341 347 343 348 346 345 349 325 310 305 309 316 323 336 327 325 312 299 298 333 291 60 82 76 88 81 73 49 42 57 68 71 75 67 64 40 137 160 147 151 162 165 164 165
249 246 261 297 312 281 279 323 346 342 345 341 330 324 322 327 328 331 331 334 342 350 343 342 327 329 326 309 301 289 285 296 329 340 314 291 269 263 225 163 103 93 85 83 87 79 69 54 53 41 39 94 83 68 60 67 103 133 147 122 89 62 52
262 270 261 285 326 304 324 323 324 324 338 339 325 317 318 318 321 322 327 332 335 333 334 332 337 321 319 312 301 286 276 277 257 250 272 276 282 224 181 98 109 116 119 117 107 95 87 57 55 80 84 79 71 75 53 42 47 58 58 77 95 90 76
257 267 280 299 313 307 308 309 306 315 322 314 312 312 315 319 320 330 330 330 330 329 326 325 325 319 305 306 306 302 294 276 260 260 271 19 39 130 124 122 130 116 118 125 125 136 134 131 104 73 60 48 54 61 50 46 51 68 74 75 82 87 92